Broomfield, CO

7:16 PM MDT on May 20, 2018 (GMT -0600)
Jeffco

Weather History for KBJC - March, 2012

Change the Weather History Date:

Friday, March 16, 2012

  Actual Average Record
Temperature  
Mean Temperature 58 °F -  
Max Temperature 73 °F 51 °F 78 °F (2015)
Min Temperature 44 °F 30 °F 13 °F (1988)
Degree Days  
Heating Degree Days 6    
Growing Degree Days 8 (Base 50)    
Moisture  
Dew Point 15 °F    
Average Humidity 22    
Maximum Humidity 37    
Minimum Humidity 8    
Precipitation  
Precipitation 0.00 in - - ()
Sea Level Pressure  
Sea Level Pressure 29.91 in    
Wind  
Wind Speed 5 mph (West)    
Max Wind Speed 13 mph    
Max Gust Speed 21 mph    
Visibility 10 miles    
Events      
Averages and records for this station are not official NWS values.
T = Trace of Precipitation, MM = Missing Value Source: NWS Daily Summary

Daily Weather History Graph

Daily Weather History Graph

Search for Another Location

Airport or City:

Astronomy

Mar. 16, 2012 Rise Set
Actual Time 7:09 AM MDT 7:08 PM MDT
Civil Twilight 6:42 AM MDT 7:35 PM MDT
Nautical Twilight 6:11 AM MDT 8:07 PM MDT
Astronomical Twilight 5:39 AM MDT 8:39 PM MDT
Moon 3:29 AM MDT (3/16) 1:32 PM MDT (3/16)
Length of Visible Light 12h 53m
Length of Day
11h 59m
Waning Crescent, 32% of the Moon is Illuminated
Mar 16
Waning Crescent
Mar 22
New
Mar 30
First Quarter
Apr 6
Full
Apr 13
Last Quarter

Hourly Weather History & Observations

Time (MDT) Temp. Windchill Dew Point Humidity Pressure Visibility Wind Dir Wind Speed Gust Speed Precip Events Conditions
12:16 AM 46.4 °F 42.9 °F 17.6 °F 32% 30.03 in 10.0 mi West 6.9 mph - N/A   Clear
12:37 AM 46.4 °F 41.5 °F 19.4 °F 34% 30.02 in 10.0 mi West 10.4 mph - N/A   Clear
12:57 AM 50.0 °F - 17.6 °F 28% 30.01 in 10.0 mi West 6.9 mph - N/A   Clear
1:17 AM 51.8 °F - 17.6 °F 26% 30.01 in 10.0 mi Calm Calm - N/A   Clear
1:37 AM 50.0 °F - 17.6 °F 28% 30.01 in 10.0 mi Calm Calm - N/A   Clear
1:57 AM 50.0 °F - 17.6 °F 28% 30.01 in 10.0 mi West 3.5 mph - N/A   Clear
2:17 AM 50.0 °F - 17.6 °F 28% 30.00 in 10.0 mi WNW 3.5 mph - N/A   Clear
2:37 AM 50.0 °F - 17.6 °F 28% 30.00 in 10.0 mi Calm Calm - N/A   Clear
2:56 AM 51.8 °F - 17.6 °F 26% 29.99 in 10.0 mi West 3.5 mph - N/A   Clear
3:17 AM 51.8 °F - 17.6 °F 26% 29.97 in 10.0 mi West 5.8 mph - N/A   Clear
3:37 AM 50.0 °F - 17.6 °F 28% 29.97 in 10.0 mi West 5.8 mph - N/A   Clear
3:57 AM 51.8 °F - 17.6 °F 26% 29.97 in 10.0 mi West 6.9 mph - N/A   Clear
4:17 AM 50.0 °F - 17.6 °F 28% 29.96 in 10.0 mi NNE 8.1 mph - N/A   Clear
4:37 AM 46.4 °F - 19.4 °F 34% 29.97 in 10.0 mi Calm Calm - N/A   Clear
4:57 AM 50.0 °F - 17.6 °F 28% 29.96 in 10.0 mi Calm Calm - N/A   Clear
5:17 AM 48.2 °F - 17.6 °F 30% 29.95 in 10.0 mi Calm Calm - N/A   Clear
5:37 AM 44.6 °F - 19.4 °F 37% 29.95 in 10.0 mi Calm Calm - N/A   Clear
5:49 AM 48.2 °F - 17.6 °F 30% 29.95 in 20.0 mi Variable 3.5 mph - N/A   Partly Cloudy
5:57 AM 46.4 °F 45.2 °F 19.4 °F 34% 29.95 in 10.0 mi SSW 3.5 mph - N/A   Clear
6:46 AM 46.4 °F 45.2 °F 17.6 °F 32% 29.95 in 50.0 mi SSW 3.5 mph - N/A   Scattered Clouds
7:51 AM 48.2 °F - 17.6 °F 30% 29.95 in 70.0 mi SW 6.9 mph - N/A   Scattered Clouds
8:49 AM 57.2 °F - 17.6 °F 21% 29.95 in 60.0 mi Calm Calm - N/A   Mostly Cloudy
9:47 AM 62.6 °F - 21.2 °F 20% 29.94 in 60.0 mi Calm Calm - N/A   Scattered Clouds
10:47 AM 66.2 °F - 15.8 °F 14% 29.92 in 60.0 mi Variable 6.9 mph - N/A   Scattered Clouds
11:48 AM 68.0 °F - 10.4 °F 11% 29.89 in 60.0 mi ESE 5.8 mph - N/A   Partly Cloudy
12:48 PM 71.6 °F - 10.4 °F 9% 29.86 in 60.0 mi SE 12.7 mph 18.4 mph N/A   Scattered Clouds
1:48 PM 73.4 °F - 8.6 °F 8% 29.82 in 60.0 mi SSE 8.1 mph - N/A   Scattered Clouds
2:51 PM 71.6 °F - 6.8 °F 8% 29.80 in 60.0 mi East 3.5 mph - N/A   Scattered Clouds
3:15 PM 73.4 °F - 6.8 °F 8% 29.79 in 70.0 mi NW 6.9 mph - N/A   Scattered Clouds
3:51 PM 71.6 °F - 6.8 °F 8% 29.79 in 70.0 mi NE 6.9 mph - N/A   Mostly Cloudy
4:51 PM 73.4 °F - 8.6 °F 8% 29.78 in 70.0 mi North 12.7 mph 20.7 mph N/A   Mostly Cloudy
5:50 PM 71.6 °F - 8.6 °F 9% 29.78 in 60.0 mi NNE 8.1 mph - N/A   Mostly Cloudy
6:48 PM 66.2 °F - 8.6 °F 11% 29.79 in 60.0 mi NE 5.8 mph - N/A   Mostly Cloudy
7:55 PM 55.4 °F - 14.0 °F 20% 29.81 in 50.0 mi WSW 10.4 mph - N/A   Scattered Clouds
8:47 PM 55.4 °F - 15.8 °F 21% 29.82 in 50.0 mi WSW 10.4 mph - N/A   Scattered Clouds
9:47 PM 53.6 °F - 10.4 °F 18% 29.83 in 50.0 mi WSW 6.9 mph - N/A   Partly Cloudy
11:17 PM 51.8 °F - 10.4 °F 19% 29.83 in 10.0 mi West 9.2 mph - N/A   Clear
11:37 PM 50.0 °F - 10.4 °F 20% 29.83 in 10.0 mi Calm Calm - N/A   Clear
11:57 PM 50.0 °F - 10.4 °F 20% 29.82 in 10.0 mi Calm Calm - N/A   Clear